World > North America > United States > Michigan

Hourly Duncan, MI Regional Weather

Feedback E-mail the Weather

Quick WX

Duncan, MI Weather Maps

°F °C°F °C
Duncan Weather Map
UTC Time: 6/29/2022, 03:55
Your Time:

Duncan, MI Regional Weather

Expires:202206290400;;363297
ASUS43 KDTX 290310
RWRMI 
MICHIGAN HOURLY REGIONAL WEATHER ROUNDUP
NATIONAL WEATHER SERVICE DETROIT/PONTIAC MI
1100 PM EDT TUE JUN 28 2022

NOTE: "FAIR" INDICATES FEW OR NO CLOUDS BELOW 12,000 FEET WITH NO
SIGNIFICANT WEATHER AND/OR OBSTRUCTION TO VISIBILITY.


MIZ047>049-052>055-059>063-066>070-074>076-081>083-290400-
SOUTHEAST LOWER MICHIGAN
  
CITY           SKY/WX    TMP DP  RH WIND       PRES   REMARKS
ADRIAN         CLEAR     65  52  62 S5        30.16S                  
ALMA           CLOUDY    70  49  48 S5        30.10R                  
ANN ARBOR      PTCLDY    60  49  66 S3        30.16R                  
BAD AXE        MOCLDY    69  50  50 N14       30.11R                  
CARO           MOCLDY    65  52  62 SW3       30.10S                  
DETROIT CITY   CLEAR     71  48  43 S6        30.16R                  
DETROIT        PTCLDY    67  53  61 S5        30.16S                  
FLINT          CLEAR     69  50  50 S7        30.12S                  
GROSSE ILE     PTCLDY    70  60  70 S7        30.16S                  
HILLSDALE      MOCLDY    59  52  77 S5        30.16S                  
HOWELL         CLEAR     69  48  46 S6        30.14F                  

CITY           SKY/WX    TMP DP  RH WIND       PRES   REMARKS
JACKSON        CLEAR     64  49  57 S5        30.15S                  
LAMBERTVILLE   CLEAR     63  54  72 CALM      30.16S                  
LANSING        PTCLDY    71  51  49 S7        30.13S                  
LAPEER         CLEAR     68  49  50 S6        30.13S                  
MASON          CLEAR     68  50  51 SE7       30.14S                  
MONROE         CLEAR     67  56  68 S8        30.15S                  
MT. CLEMENS    PTCLDY    61  50  67 S8        30.12S                  
PONTIAC        MOCLDY    69  49  48 VRB6      30.15R                  
PORT HOPE        N/A     68  33  27 NW12G20   30.10R                  
PORT HURON     CLEAR     61  52  72 S5        30.15S                  
TRI CITIES     MOCLDY    72  51  47 S7        30.10R                  
MIDLAND        CLOUDY    71  53  53 N16G25    30.12R                  
TROY           CLEAR     72  42  34 S3        30.17F                  
SAGINAW HB     MOCLDY    69  50  50 S6        30.09S                  
$$

SKY/WX - Weather  TMP - Temperature  DP - Dew Point  RH - Humidity
WIND - Wind Direction/Speed PRES - Barometric Pressure VSB - Visibility
WCI - Wind Chill Index E13G22 Wind - East Wind 13 mph/Gusts of 22 mph

Trending Headlines

Duncan Radar Loop



Duncan Quick Facts


National Two Day Weather Forecast


E-mail the Duncan Weather Forecast

Voice your opinion or tell us about page issues...